| time (UTC) | temp C | wind direction | speed KPH | gust KPH | rain 1hr cm | rain 24hr cm | rain mn cm | humidity % | barometer mb |
| 20260507221342 | 8 | 105 | 0.0 | 0.0 | 0.00 | 0.00 | 0.00 | 91 | 1015.9 |
| 20260507220841 | 8 | 105 | 0.0 | 0.0 | 0.00 | 0.00 | 0.00 | 91 | 1015.9 |
| 20260507220341 | 8 | 105 | 0.0 | 0.0 | 0.00 | 0.00 | 0.00 | 90 | 1016.0 |
| 20260507215840 | 9 | 105 | 0.0 | 1.6 | 0.00 | 0.00 | 0.00 | 90 | 1015.9 |
| 20260507215340 | 9 | 105 | 0.0 | 1.6 | 0.00 | 0.00 | 0.00 | 90 | 1015.9 |
| 20260507214834 | 9 | 105 | 0.0 | 1.6 | 0.00 | 0.00 | 0.00 | 90 | 1016.0 |
| 20260507213831 | 9 | 105 | 0.0 | 1.6 | 0.00 | 0.00 | 0.00 | 90 | 1016.0 |
| 20260507213329 | 9 | 105 | 0.0 | 1.6 | 0.00 | 0.00 | 0.00 | 90 | 1016.0 |
| 20260507212828 | 9 | 100 | 0.0 | 1.6 | 0.00 | 0.00 | 0.00 | 90 | 1016.0 |
| 20260507212323 | 10 | 89 | 0.0 | 1.6 | 0.00 | 0.00 | 0.00 | 89 | 1016.0 |
| 20260507211824 | 10 | 89 | 0.0 | 1.6 | 0.00 | 0.00 | 0.00 | 89 | 1015.9 |
| 20260507211324 | 10 | 89 | 0.0 | 1.6 | 0.00 | 0.00 | 0.00 | 89 | 1015.9 |
| 20260507210824 | 10 | 89 | 0.0 | 3.2 | 0.00 | 0.00 | 0.00 | 89 | 1015.8 |
| 20260507210322 | 10 | 92 | 0.0 | 3.2 | 0.00 | 0.00 | 0.00 | 89 | 1015.9 |
| 20260507205822 | 10 | 101 | 0.0 | 3.2 | 0.00 | 0.00 | 0.00 | 89 | 1015.8 |
| 20260507205320 | 10 | 101 | 0.0 | 3.2 | 0.00 | 0.00 | 0.00 | 89 | 1015.8 |
| 20260507204819 | 10 | 101 | 0.0 | 1.6 | 0.00 | 0.00 | 0.00 | 89 | 1015.7 |
| 20260507204321 | 10 | 101 | 0.0 | 3.2 | 0.00 | 0.00 | 0.00 | 89 | 1015.7 |
| 20260507203818 | 10 | 94 | 1.6 | 4.8 | 0.00 | 0.00 | 0.00 | 88 | 1015.7 |
| 20260507203316 | 10 | 96 | 1.6 | 6.4 | 0.00 | 0.00 | 0.00 | 88 | 1015.6 |
| 20260507202816 | 10 | 91 | 1.6 | 6.4 | 0.00 | 0.00 | 0.00 | 88 | 1015.6 |
| 20260507202309 | 10 | 98 | 0.0 | 4.8 | 0.00 | 0.00 | 0.00 | 88 | 1015.6 |
| 20260507201810 | 10 | 94 | 0.0 | 4.8 | 0.00 | 0.00 | 0.00 | 88 | 1015.6 |
| 20260507201311 | 10 | 117 | 1.6 | 4.8 | 0.00 | 0.00 | 0.00 | 87 | 1015.6 |
| 20260507200311 | 10 | 126 | 1.6 | 3.2 | 0.00 | 0.00 | 0.00 | 87 | 1015.6 |
| 20260507195306 | 10 | 102 | 1.6 | 6.4 | 0.00 | 0.00 | 0.00 | 87 | 1015.4 |
| 20260507194806 | 10 | 102 | 1.6 | 6.4 | 0.00 | 0.00 | 0.00 | 87 | 1015.4 |
| 20260507194305 | 10 | 127 | 1.6 | 6.4 | 0.00 | 0.00 | 0.00 | 87 | 1015.4 |
| 20260507193805 | 10 | 103 | 0.0 | 4.8 | 0.00 | 0.00 | 0.00 | 86 | 1015.3 |
| 20260507192802 | 10 | 109 | 0.0 | 4.8 | 0.00 | 0.00 | 0.00 | 86 | 1015.2 |
| 20260507192256 | 10 | 122 | 1.6 | 4.8 | 0.00 | 0.00 | 0.00 | 86 | 1015.3 |
| 20260507191806 | 11 | 150 | 1.6 | 4.8 | 0.00 | 0.00 | 0.00 | 86 | 1015.3 |
| 20260507191252 | 11 | 119 | 0.0 | 4.8 | 0.00 | 0.00 | 0.00 | 85 | 1015.3 |
| 20260507190750 | 11 | 144 | 1.6 | 6.4 | 0.00 | 0.00 | 0.00 | 85 | 1015.3 |
| 20260507190250 | 11 | 120 | 1.6 | 6.4 | 0.00 | 0.00 | 0.00 | 85 | 1015.2 |
| 20260507185746 | 11 | 115 | 1.6 | 8.0 | 0.00 | 0.00 | 0.00 | 85 | 1015.2 |
| 20260507185245 | 11 | 108 | 1.6 | 8.0 | 0.00 | 0.00 | 0.00 | 84 | 1015.2 |
| 20260507184745 | 11 | 103 | 1.6 | 9.7 | 0.00 | 0.00 | 0.00 | 84 | 1015.1 |
| 20260507184247 | 11 | 108 | 1.6 | 9.7 | 0.00 | 0.00 | 0.00 | 84 | 1015.1 |
| 20260507183744 | 11 | 116 | 3.2 | 9.7 | 0.00 | 0.00 | 0.00 | 83 | 1015.2 |
| 20260507183244 | 11 | 108 | 3.2 | 9.7 | 0.00 | 0.00 | 0.00 | 83 | 1015.2 |
| 20260507182237 | 11 | 128 | 3.2 | 11.3 | 0.00 | 0.00 | 0.00 | 82 | 1015.2 |
| 20260507181737 | 11 | 106 | 3.2 | 11.3 | 0.00 | 0.00 | 0.00 | 82 | 1015.2 |
| 20260507181238 | 11 | 95 | 3.2 | 9.7 | 0.00 | 0.00 | 0.00 | 82 | 1015.2 |
| 20260507180738 | 11 | 79 | 3.2 | 11.3 | 0.00 | 0.00 | 0.00 | 82 | 1015.1 |
| 20260507180238 | 11 | 113 | 1.6 | 11.3 | 0.00 | 0.00 | 0.00 | 81 | 1015.1 |
| 20260507175734 | 11 | 99 | 1.6 | 11.3 | 0.00 | 0.00 | 0.00 | 81 | 1015.1 |
| 20260507175234 | 11 | 127 | 3.2 | 11.3 | 0.00 | 0.00 | 0.00 | 81 | 1015.0 |
| 20260507174231 | 11 | 124 | 1.6 | 8.0 | 0.00 | 0.00 | 0.00 | 81 | 1015.1 |
| 20260507173732 | 11 | 109 | 1.6 | 8.0 | 0.00 | 0.00 | 0.00 | 81 | 1015.0 |
| 20260507173231 | 11 | 121 | 1.6 | 8.0 | 0.00 | 0.00 | 0.00 | 80 | 1015.0 |
| 20260507172726 | 11 | 101 | 1.6 | 8.0 | 0.00 | 0.00 | 0.00 | 80 | 1015.0 |
| 20260507171726 | 12 | 111 | 1.6 | 8.0 | 0.00 | 0.00 | 0.00 | 80 | 1015.0 |
| 20260507171226 | 12 | 144 | 1.6 | 4.8 | 0.00 | 0.00 | 0.00 | 80 | 1015.1 |
| 20260507170726 | 12 | 127 | 1.6 | 4.8 | 0.00 | 0.00 | 0.00 | 80 | 1015.1 |
| 20260507170224 | 12 | 110 | 1.6 | 8.0 | 0.00 | 0.00 | 0.00 | 80 | 1015.0 |
| 20260507165722 | 12 | 131 | 3.2 | 8.0 | 0.00 | 0.00 | 0.00 | 80 | 1015.1 |
| 20260507165219 | 12 | 110 | 3.2 | 9.7 | 0.00 | 0.00 | 0.00 | 80 | 1015.1 |
| 20260507164719 | 12 | 132 | 3.2 | 9.7 | 0.00 | 0.00 | 0.00 | 80 | 1015.1 |
| 20260507164220 | 12 | 100 | 3.2 | 8.0 | 0.00 | 0.00 | 0.00 | 80 | 1015.2 |
| 20260507163719 | 12 | 44 | 3.2 | 12.9 | 0.00 | 0.00 | 0.00 | 80 | 1015.2 |
| 20260507163217 | 12 | 98 | 3.2 | 12.9 | 0.00 | 0.00 | 0.00 | 80 | 1015.2 |
| 20260507162710 | 12 | 105 | 3.2 | 9.7 | 0.00 | 0.00 | 0.00 | 80 | 1015.2 |
| 20260507162209 | 12 | 120 | 3.2 | 11.3 | 0.00 | 0.00 | 0.00 | 81 | 1015.2 |
| 20260507161708 | 12 | 58 | 3.2 | 12.9 | 0.00 | 0.00 | 0.00 | 81 | 1015.2 |
| 20260507161208 | 12 | 113 | 3.2 | 12.9 | 0.00 | 0.00 | 0.00 | 81 | 1015.2 |
| 20260507160710 | 12 | 141 | 3.2 | 9.7 | 0.00 | 0.00 | 0.00 | 81 | 1015.2 |
| 20260507155210 | 12 | 71 | 4.8 | 14.5 | 0.00 | 0.00 | 0.00 | 81 | 1015.2 |
| 20260507154710 | 12 | 113 | 4.8 | 16.1 | 0.00 | 0.00 | 0.00 | 81 | 1015.2 |
| 20260507154208 | 12 | 49 | 4.8 | 16.1 | 0.00 | 0.00 | 0.00 | 81 | 1015.2 |
| 20260507153710 | 12 | 77 | 4.8 | 12.9 | 0.00 | 0.00 | 0.00 | 81 | 1015.2 |
| 20260507153210 | 12 | 81 | 4.8 | 16.1 | 0.00 | 0.00 | 0.00 | 81 | 1015.3 |
| 20260507152704 | 12 | 47 | 6.4 | 16.1 | 0.00 | 0.00 | 0.00 | 81 | 1015.2 |
| 20260507152205 | 12 | 60 | 6.4 | 14.5 | 0.00 | 0.00 | 0.00 | 80 | 1015.2 |
| 20260507151704 | 12 | 75 | 6.4 | 17.7 | 0.00 | 0.00 | 0.00 | 81 | 1015.2 |
| 20260507151205 | 12 | 53 | 8.0 | 17.7 | 0.00 | 0.00 | 0.00 | 80 | 1015.2 |
| 20260507150206 | 12 | 78 | 6.4 | 16.1 | 0.00 | 0.00 | 0.00 | 80 | 1015.2 |
| 20260507145701 | 12 | 32 | 8.0 | 17.7 | 0.00 | 0.00 | 0.00 | 80 | 1015.2 |
| 20260507145201 | 12 | 55 | 8.0 | 17.7 | 0.00 | 0.00 | 0.00 | 80 | 1015.2 |
| 20260507144201 | 12 | 41 | 6.4 | 14.5 | 0.00 | 0.00 | 0.00 | 80 | 1015.2 |
| 20260507143702 | 12 | 86 | 8.0 | 16.1 | 0.00 | 0.00 | 0.00 | 80 | 1015.3 |
| 20260507143202 | 12 | 40 | 9.7 | 17.7 | 0.00 | 0.00 | 0.00 | 80 | 1015.3 |
| 20260507142656 | 12 | 56 | 8.0 | 17.7 | 0.00 | 0.00 | 0.00 | 80 | 1015.3 |
| 20260507142158 | 12 | 70 | 8.0 | 16.1 | 0.00 | 0.00 | 0.00 | 80 | 1015.4 |
| 20260507141656 | 12 | 91 | 8.0 | 16.1 | 0.00 | 0.00 | 0.00 | 80 | 1015.4 |
| 20260507141157 | 12 | 56 | 8.0 | 16.1 | 0.00 | 0.00 | 0.00 | 79 | 1015.5 |
| 20260507140658 | 12 | 48 | 6.4 | 16.1 | 0.00 | 0.00 | 0.00 | 79 | 1015.4 |
| 20260507140158 | 12 | 51 | 6.4 | 14.5 | 0.00 | 0.00 | 0.00 | 79 | 1015.4 |
| 20260507135653 | 12 | 72 | 8.0 | 17.7 | 0.00 | 0.00 | 0.00 | 79 | 1015.5 |
| 20260507135152 | 12 | 110 | 9.7 | 19.3 | 0.00 | 0.00 | 0.00 | 79 | 1015.5 |
| 20260507134153 | 12 | 91 | 8.0 | 16.1 | 0.00 | 0.00 | 0.00 | 79 | 1015.4 |
| 20260507133653 | 12 | 67 | 9.7 | 17.7 | 0.00 | 0.00 | 0.00 | 78 | 1015.4 |
| 20260507133154 | 12 | 39 | 9.7 | 17.7 | 0.00 | 0.00 | 0.00 | 77 | 1015.4 |
| 20260507132152 | 12 | 51 | 9.7 | 19.3 | 0.00 | 0.00 | 0.00 | 77 | 1015.4 |
| 20260507131652 | 12 | 53 | 8.0 | 17.7 | 0.00 | 0.00 | 0.00 | 77 | 1015.4 |
| 20260507131153 | 12 | 79 | 8.0 | 19.3 | 0.00 | 0.00 | 0.00 | 77 | 1015.4 |
| 20260507130648 | 12 | 63 | 8.0 | 19.3 | 0.00 | 0.00 | 0.00 | 76 | 1015.5 |
| 20260507130149 | 12 | 102 | 9.7 | 19.3 | 0.00 | 0.00 | 0.00 | 76 | 1015.4 |
| 20260507125648 | 12 | 57 | 9.7 | 19.3 | 0.00 | 0.00 | 0.00 | 76 | 1015.5 |
| 20260507124149 | 12 | 63 | 8.0 | 17.7 | 0.00 | 0.00 | 0.00 | 78 | 1015.5 |
| 20260507123649 | 12 | 62 | 8.0 | 17.7 | 0.00 | 0.00 | 0.00 | 76 | 1015.5 |
| 20260507123145 | 12 | 117 | 6.4 | 17.7 | 0.00 | 0.00 | 0.00 | 77 | 1015.6 |
| 20260507122643 | 12 | 66 | 6.4 | 19.3 | 0.00 | 0.00 | 0.00 | 77 | 1015.5 |
| 20260507122143 | 12 | 39 | 6.4 | 19.3 | 0.00 | 0.00 | 0.00 | 76 | 1015.6 |
| 20260507121655 | 12 | 103 | 8.0 | 20.9 | 0.00 | 0.00 | 0.00 | 77 | 1015.5 |
| 20260507121143 | 12 | 99 | 11.3 | 20.9 | 0.00 | 0.00 | 0.00 | 78 | 1015.5 |
| 20260507120140 | 12 | 153 | 8.0 | 17.7 | 0.00 | 0.00 | 0.00 | 77 | 1015.6 |
| 20260507115638 | 12 | 94 | 6.4 | 17.7 | 0.00 | 0.00 | 0.00 | 77 | 1015.5 |
| 20260507115136 | 12 | 49 | 8.0 | 17.7 | 0.00 | 0.00 | 0.00 | 76 | 1015.6 |
| 20260507114636 | 12 | 53 | 8.0 | 14.5 | 0.00 | 0.00 | 0.00 | 76 | 1015.6 |
| 20260507114136 | 12 | 48 | 8.0 | 16.1 | 0.00 | 0.00 | 0.00 | 76 | 1015.6 |
| 20260507113637 | 12 | 47 | 8.0 | 16.1 | 0.00 | 0.00 | 0.00 | 75 | 1015.6 |
| 20260507113136 | 12 | 52 | 8.0 | 16.1 | 0.00 | 0.00 | 0.00 | 75 | 1015.6 |
| 20260507112637 | 12 | 67 | 8.0 | 16.1 | 0.00 | 0.00 | 0.00 | 75 | 1015.6 |
| 20260507111633 | 12 | 53 | 9.7 | 16.1 | 0.00 | 0.00 | 0.00 | 75 | 1015.6 |
| 20260507111133 | 12 | 60 | 8.0 | 16.1 | 0.00 | 0.00 | 0.00 | 74 | 1015.6 |
| 20260507110633 | 12 | 47 | 8.0 | 16.1 | 0.00 | 0.00 | 0.00 | 74 | 1015.7 |
| 20260507110133 | 12 | 42 | 9.7 | 20.9 | 0.00 | 0.00 | 0.00 | 73 | 1015.6 |
| 20260507105633 | 12 | 53 | 9.7 | 20.9 | 0.00 | 0.00 | 0.00 | 73 | 1015.6 |
| 20260507105133 | 12 | 37 | 8.0 | 19.3 | 0.00 | 0.00 | 0.00 | 73 | 1015.7 |
| 20260507104634 | 12 | 101 | 11.3 | 19.3 | 0.00 | 0.00 | 0.00 | 73 | 1015.8 |
| 20260507104127 | 12 | 48 | 11.3 | 17.7 | 0.00 | 0.00 | 0.00 | 73 | 1015.7 |
| 20260507103127 | 12 | 65 | 8.0 | 19.3 | 0.00 | 0.00 | 0.00 | 71 | 1015.8 |
| 20260507102127 | 13 | 30 | 6.4 | 17.7 | 0.00 | 0.00 | 0.00 | 72 | 1015.8 |
| 20260507101627 | 12 | 23 | 6.4 | 17.7 | 0.00 | 0.00 | 0.00 | 72 | 1015.8 |
| 20260507101121 | 12 | 65 | 8.0 | 17.7 | 0.00 | 0.00 | 0.00 | 72 | 1015.8 |
| 20260507100621 | 12 | 40 | 8.0 | 17.7 | 0.00 | 0.00 | 0.00 | 73 | 1015.7 |
| 20260507100122 | 12 | 75 | 6.4 | 17.7 | 0.00 | 0.00 | 0.00 | 73 | 1015.8 |
| 20260507095622 | 12 | 81 | 8.0 | 3.2 | 0.00 | 0.00 | 0.00 | 75 | 1015.6 |
| 20260507094304 | 12 | 45 | 8.0 | 16.1 | 0.00 | 0.00 | 0.00 | 75 | 1015.7 |
| 20260507093803 | 12 | 60 | 6.4 | 19.3 | 0.00 | 0.00 | 0.00 | 75 | 1015.7 |
| 20260507093300 | 12 | 44 | 8.0 | 19.3 | 0.00 | 0.00 | 0.00 | 74 | 1015.7 |
| 20260507092257 | 12 | 43 | 6.4 | 14.5 | 0.00 | 0.00 | 0.00 | 74 | 1015.7 |
| 20260507091757 | 12 | 53 | 6.4 | 14.5 | 0.00 | 0.00 | 0.00 | 71 | 1015.6 |
| 20260507091257 | 11 | 151 | 6.4 | 12.9 | 0.00 | 0.00 | 0.00 | 70 | 1015.6 |
| 20260507090756 | 12 | 54 | 6.4 | 12.9 | 0.00 | 0.00 | 0.00 | 72 | 1015.5 |
| 20260507090255 | 12 | 44 | 6.4 | 12.9 | 0.00 | 0.00 | 0.00 | 73 | 1015.5 |
| 20260507085756 | 12 | 64 | 6.4 | 12.9 | 0.00 | 0.00 | 0.00 | 74 | 1015.5 |
| 20260507085254 | 11 | 65 | 6.4 | 12.9 | 0.00 | 0.00 | 0.00 | 73 | 1015.4 |
| 20260507084755 | 12 | 69 | 3.2 | 12.9 | 0.00 | 0.00 | 0.00 | 73 | 1015.4 |
| 20260507084256 | 11 | 69 | 3.2 | 11.3 | 0.00 | 0.00 | 0.00 | 75 | 1015.4 |
| 20260507083755 | 11 | 121 | 4.8 | 11.3 | 0.00 | 0.00 | 0.00 | 74 | 1015.4 |
| 20260507083255 | 11 | 56 | 6.4 | 11.3 | 0.00 | 0.00 | 0.00 | 75 | 1015.4 |
| 20260507082748 | 11 | 46 | 6.4 | 12.9 | 0.00 | 0.00 | 0.00 | 76 | 1015.4 |
| 20260507082249 | 11 | 68 | 6.4 | 12.9 | 0.00 | 0.00 | 0.00 | 76 | 1015.4 |
| 20260507081749 | 11 | 48 | 4.8 | 9.7 | 0.00 | 0.00 | 0.00 | 76 | 1015.4 |
| 20260507081246 | 11 | 54 | 6.4 | 11.3 | 0.00 | 0.00 | 0.00 | 76 | 1015.4 |
| 20260507080745 | 11 | 81 | 6.4 | 12.9 | 0.00 | 0.00 | 0.00 | 76 | 1015.4 |
| 20260507075739 | 11 | 73 | 4.8 | 11.3 | 0.00 | 0.00 | 0.00 | 76 | 1015.3 |
| 20260507075239 | 11 | 63 | 3.2 | 11.3 | 0.00 | 0.00 | 0.00 | 77 | 1015.3 |
| 20260507074739 | 11 | 70 | 3.2 | 9.7 | 0.00 | 0.00 | 0.00 | 77 | 1015.3 |
| 20260507074239 | 11 | 56 | 4.8 | 12.9 | 0.00 | 0.00 | 0.00 | 77 | 1015.2 |
| 20260507073239 | 11 | 50 | 4.8 | 9.7 | 0.00 | 0.00 | 0.00 | 76 | 1015.2 |
| 20260507072733 | 11 | 8 | 3.2 | 9.7 | 0.00 | 0.00 | 0.00 | 77 | 1015.2 |
| 20260507071734 | 11 | 52 | 3.2 | 6.4 | 0.00 | 0.00 | 0.00 | 78 | 1015.1 |
| 20260507071233 | 11 | 46 | 3.2 | 8.0 | 0.00 | 0.00 | 0.00 | 77 | 1015.0 |
| 20260507070733 | 11 | 65 | 4.8 | 9.7 | 0.00 | 0.00 | 0.00 | 78 | 1015.0 |
| 20260507064731 | 10 | 86 | 1.6 | 8.0 | 0.00 | 0.00 | 0.00 | 80 | 1014.9 |
| 20260507064231 | 10 | 65 | 3.2 | 8.0 | 0.00 | 0.00 | 0.00 | 80 | 1014.9 |
| 20260507063731 | 10 | 72 | 3.2 | 8.0 | 0.00 | 0.00 | 0.00 | 80 | 1014.9 |
| 20260507063231 | 10 | 42 | 4.8 | 11.3 | 0.00 | 0.00 | 0.00 | 81 | 1015.0 |
| 20260507062729 | 10 | 57 | 4.8 | 11.3 | 0.00 | 0.00 | 0.00 | 82 | 1014.9 |
| 20260507062222 | 10 | 79 | 1.6 | 4.8 | 0.00 | 0.00 | 0.00 | 84 | 1014.9 |
| 20260507061723 | 10 | 353 | 0.0 | 3.2 | 0.00 | 0.00 | 0.00 | 87 | 1014.9 |
| 20260507061221 | 10 | 105 | 0.0 | 0.0 | 0.00 | 0.00 | 0.00 | 88 | 1014.8 |
| 20260507060222 | 10 | 105 | 0.0 | 0.0 | 0.00 | 0.00 | 0.00 | 89 | 1014.6 |
| 20260507055722 | 10 | 105 | 0.0 | 0.0 | 0.00 | 0.00 | 0.00 | 89 | 1014.6 |
| 20260507055223 | 9 | 105 | 0.0 | 0.0 | 0.00 | 0.00 | 0.00 | 90 | 1014.6 |
| 20260507054217 | 9 | 105 | 0.0 | 0.0 | 0.00 | 0.00 | 0.00 | 90 | 1014.5 |
| 20260507053719 | 9 | 105 | 0.0 | 0.0 | 0.00 | 0.00 | 0.00 | 90 | 1014.5 |
| 20260507052219 | 8 | 105 | 0.0 | 0.0 | 0.00 | 0.00 | 0.00 | 90 | 1014.5 |
| 20260507051726 | 8 | 105 | 0.0 | 0.0 | 0.00 | 0.00 | 0.00 | 90 | 1014.5 |
| 20260507050715 | 8 | 105 | 0.0 | 0.0 | 0.00 | 0.00 | 0.00 | 90 | 1014.5 |
| 20260507045713 | 8 | 105 | 0.0 | 0.0 | 0.00 | 0.00 | 0.00 | 90 | 1014.4 |
| 20260507045215 | 8 | 105 | 0.0 | 0.0 | 0.00 | 0.00 | 0.00 | 90 | 1014.3 |
| 20260507044714 | 8 | 105 | 0.0 | 0.0 | 0.00 | 0.00 | 0.00 | 90 | 1014.4 |
| 20260507044213 | 8 | 105 | 0.0 | 0.0 | 0.00 | 0.00 | 0.00 | 90 | 1014.3 |
| 20260507042900 | 8 | 105 | 0.0 | 0.0 | 0.00 | 0.00 | 0.00 | 89 | 1014.2 |
| 20260507042400 | 8 | 105 | 0.0 | 0.0 | 0.00 | 0.00 | 0.00 | 89 | 1014.1 |
| 20260507041900 | 8 | 105 | 0.0 | 0.0 | 0.00 | 0.00 | 0.00 | 89 | 1014.1 |
| 20260507041401 | 8 | 105 | 0.0 | 0.0 | 0.00 | 0.00 | 0.00 | 89 | 1014.1 |
| 20260507040356 | 8 | 105 | 0.0 | 3.2 | 0.00 | 0.00 | 0.00 | 89 | 1014.1 |
| 20260507035856 | 8 | 105 | 0.0 | 3.2 | 0.00 | 0.00 | 0.00 | 89 | 1014.1 |
| 20260507035355 | 8 | 105 | 0.0 | 0.0 | 0.00 | 0.00 | 0.00 | 89 | 1014.1 |
| 20260507034855 | 8 | 106 | 0.0 | 1.6 | 0.00 | 0.00 | 0.00 | 89 | 1014.1 |
| 20260507033849 | 8 | 82 | 0.0 | 0.0 | 0.00 | 0.00 | 0.00 | 88 | 1014.0 |
| 20260507033348 | 8 | 82 | 0.0 | 0.0 | 0.00 | 0.00 | 0.00 | 88 | 1014.0 |
| 20260507032846 | 8 | 82 | 0.0 | 0.0 | 0.00 | 0.00 | 0.00 | 89 | 1014.1 |
| 20260507032345 | 8 | 82 | 0.0 | 0.0 | 0.00 | 0.00 | 0.00 | 89 | 1014.0 |
| 20260507031843 | 8 | 82 | 0.0 | 0.0 | 0.00 | 0.00 | 0.00 | 88 | 1014.0 |
| 20260507031339 | 8 | 82 | 0.0 | 0.0 | 0.00 | 0.00 | 0.00 | 88 | 1014.0 |
| 20260507030835 | 8 | 82 | 0.0 | 0.0 | 0.00 | 0.00 | 0.00 | 88 | 1014.0 |
| 20260507030348 | 8 | 82 | 0.0 | 0.0 | 0.00 | 0.00 | 0.00 | 87 | 1014.0 |
| 20260507025833 | 8 | 82 | 0.0 | 0.0 | 0.00 | 0.00 | 0.00 | 87 | 1013.9 |
| 20260507024825 | 8 | 82 | 0.0 | 0.0 | 0.00 | 0.00 | 0.00 | 87 | 1013.9 |
| 20260507024323 | 8 | 82 | 0.0 | 0.0 | 0.00 | 0.00 | 0.00 | 86 | 1013.8 |
| 20260507023323 | 8 | 82 | 0.0 | 0.0 | 0.00 | 0.00 | 0.00 | 86 | 1013.8 |
| 20260507022824 | 8 | 82 | 0.0 | 0.0 | 0.00 | 0.00 | 0.00 | 86 | 1013.8 |
| 20260507022324 | 9 | 82 | 0.0 | 0.0 | 0.00 | 0.00 | 0.00 | 85 | 1013.8 |
| 20260507021831 | 9 | 82 | 0.0 | 0.0 | 0.00 | 0.00 | 0.00 | 85 | 1013.8 |
| 20260507021317 | 9 | 82 | 0.0 | 0.0 | 0.00 | 0.00 | 0.00 | 85 | 1013.8 |
| 20260507020817 | 9 | 82 | 0.0 | 0.0 | 0.00 | 0.00 | 0.00 | 84 | 1013.8 |
| 20260507020318 | 9 | 82 | 0.0 | 0.0 | 0.00 | 0.00 | 0.00 | 84 | 1013.8 |
| 20260507014825 | 10 | 82 | 0.0 | 4.8 | 0.00 | 0.03 | 0.00 | 84 | 1013.7 |
| 20260507014322 | 10 | 47 | 1.6 | 4.8 | 0.00 | 0.03 | 0.00 | 84 | 1013.7 |
| 20260507013315 | 10 | 51 | 1.6 | 4.8 | 0.00 | 0.03 | 0.00 | 84 | 1013.8 |
| 20260507012817 | 10 | 67 | 0.0 | 4.8 | 0.00 | 0.03 | 0.00 | 83 | 1013.7 |
| 20260507012317 | 10 | 53 | 1.6 | 6.4 | 0.00 | 0.03 | 0.00 | 83 | 1013.8 |
| 20260507011817 | 10 | 79 | 1.6 | 6.4 | 0.00 | 0.03 | 0.00 | 83 | 1013.8 |
| 20260507011314 | 10 | 53 | 1.6 | 6.4 | 0.00 | 0.03 | 0.00 | 83 | 1013.8 |
| 20260507010814 | 10 | 72 | 3.2 | 6.4 | 0.00 | 0.03 | 0.00 | 83 | 1013.8 |
| 20260507010310 | 10 | 55 | 3.2 | 8.0 | 0.00 | 0.03 | 0.00 | 83 | 1013.7 |
| 20260507005810 | 10 | 60 | 3.2 | 8.0 | 0.00 | 0.03 | 0.00 | 83 | 1013.7 |
| 20260507005308 | 10 | 45 | 3.2 | 8.0 | 0.00 | 0.03 | 0.00 | 83 | 1013.7 |
| 20260507004809 | 10 | 54 | 4.8 | 8.0 | 0.00 | 0.03 | 0.00 | 83 | 1013.7 |
| 20260507004308 | 10 | 54 | 3.2 | 8.0 | 0.00 | 0.03 | 0.00 | 83 | 1013.7 |
| 20260507003807 | 10 | 63 | 3.2 | 8.0 | 0.00 | 0.03 | 0.00 | 83 | 1013.6 |
| 20260507003302 | 10 | 53 | 1.6 | 6.4 | 0.00 | 0.03 | 0.00 | 83 | 1013.6 |
| 20260507002801 | 10 | 75 | 1.6 | 6.4 | 0.00 | 0.03 | 0.00 | 83 | 1013.6 |
| 20260507002258 | 10 | 54 | 3.2 | 8.0 | 0.00 | 0.03 | 0.00 | 83 | 1013.7 |
| 20260507001757 | 10 | 46 | 4.8 | 11.3 | 0.00 | 0.03 | 0.00 | 83 | 1013.7 |
| 20260507001256 | 10 | 59 | 4.8 | 11.3 | 0.00 | 0.03 | 0.00 | 83 | 1013.7 |
| 20260507000753 | 10 | 49 | 4.8 | 9.7 | 0.00 | 0.03 | 0.00 | 83 | 1013.7 |
| 20260507000252 | 10 | 70 | 4.8 | 9.7 | 0.00 | 0.03 | 0.00 | 83 | 1013.8 |
| 20260506235252 | 10 | 63 | 4.8 | 11.3 | 0.00 | 0.03 | 0.00 | 83 | 1013.8 |
| 20260506234752 | 10 | 56 | 4.8 | 8.0 | 0.00 | 0.03 | 0.00 | 83 | 1013.8 |
| 20260506234252 | 10 | 58 | 4.8 | 8.0 | 0.00 | 0.03 | 0.00 | 83 | 1013.7 |
| 20260506233751 | 10 | 71 | 3.2 | 9.7 | 0.00 | 0.03 | 0.00 | 83 | 1013.7 |
| 20260506233247 | 10 | 58 | 1.6 | 8.0 | 0.00 | 0.03 | 0.00 | 83 | 1013.6 |
| 20260506231748 | 10 | 58 | 3.2 | 8.0 | 0.00 | 0.03 | 0.00 | 83 | 1013.6 |
| 20260506231246 | 10 | 55 | 4.8 | 9.7 | 0.00 | 0.03 | 0.00 | 82 | 1013.6 |
| 20260506230746 | 10 | 61 | 4.8 | 9.7 | 0.00 | 0.03 | 0.00 | 82 | 1013.6 |
| 20260506225743 | 10 | 56 | 4.8 | 11.3 | 0.00 | 0.03 | 0.03 | 83 | 1013.7 |
| 20260506224744 | 10 | 67 | 3.2 | 8.0 | 0.00 | 0.03 | 0.03 | 83 | 1013.6 |
| 20260506224245 | 10 | 61 | 3.2 | 8.0 | 0.00 | 0.03 | 0.03 | 83 | 1013.6 |
| 20260506223744 | 10 | 65 | 4.8 | 11.3 | 0.00 | 0.03 | 0.03 | 82 | 1013.6 |
| 20260506223244 | 10 | 46 | 3.2 | 11.3 | 0.00 | 0.03 | 0.03 | 82 | 1013.5 |
| 20260506222741 | 10 | 49 | 3.2 | 6.4 | 0.00 | 0.03 | 0.03 | 82 | 1013.5 |
| 20260506222240 | 10 | 69 | 3.2 | 8.0 | 0.00 | 0.03 | 0.03 | 83 | 1013.5 |